YUNHAI 1

Satellite information

Favourite Embed

Satellite Type and Status

PAYLOADIN ORBIT

Key statistics

Satellite YUNHAI 1 at a glance.

Uptime

3098

Days in orbit

Revolutions

≈ 14.3

Per day

Orbit

SSO

Sun Synchronous Orbit

Inclination

98.6

Latest

Satellite identification and parameters

Extended collection of information and parameters for YUNHAI 1.

Object identification

Identified? True

Debris? False

Object name: YUNHAI 1

International designator: 2016-068A

Object number (NORAD): 41857

Object ID (CCSDS): 41857

Country: PEOPLES REPUBLIC OF CHINA (PRC)

Current information (Y/N): Y

RCS size: LARGE

Orbital parameters

Period: 100.464 minutes

Inclination: 98.591 deg

SMA: 7158.68 km

Apoapsis: 785.645 km

Periapsis: 775.445 km

RAAN: 134.5859 deg

Eccentricy: 0.0007124

Argument of periapsis: 122.2826 deg

Mean anomaly: 237.9049 deg

Mean motion: 14.33353634 rev/day

Mean motion (dot): 0.00000493 rev/day2

B* drag term: 0.00019474 1/REarth

Two-line elements (TLE)

Creation date: May 5, 2025, 2:11 a.m.

Reference frame: TEME

Reference center: EARTH

Epoch: May 4, 2025, 11:03 p.m. UTC

TLE line 0: 0 YUNHAI 1

TLE line 1: 1 41857U 16068A 25124.96046813 .00000493 00000-0 19474-3 0 9991

TLE line 2: 2 41857 98.5910 134.5859 0007124 122.2826 237.9049 14.33353634443371

Live tracking on map

Real-time ground track for satellite YUNHAI 1.

In-orbit conjunctions

There are no conjunctions computed for YUNHAI 1, at the moment. Check back to stay up to date, as we update our databases every day.

Go to all conjunctions

Associated space launch

The Yunhai-1 satellite is designed for detecting environmental elements in the atmosphere and ocean, the space environment, disaster prevention and reduction, and scientific experimentation. It is made by the Shanghai Institute of Spaceflight Technology.

YUNHAI 1 was lifted into orbit during the mission ‘Long March 2D | YunHai 1-01’, on board a Long March 2D space rocket.

The launch took place on Nov. 11, 2016, 11:14 p.m. from Launch Area 4 (SLS-2 / 603).

For more information about the launch, click the button.

Launch to space Long March 2D | YunHai 1-01
Long March 2D | YunHai 1-01

Agency: N/A

Status: Launch Successful

Launch date: Nov. 11, 2016, 11:14 p.m. UTC

Rocket: Long March 2D

Launch pad: Launch Area 4 (SLS-2 / 603)

Location: Jiuquan Satellite Launch Center, People's Republic of China

...

Latest news about this satellite

There are no fresh news available about this satellite. Check back as we update our databases every day.


Newsletter sign-up

Weekly statistics, charts and insights to help you stay on top of the space industry.